Weather History for Damascus, Syria

Change the Weather History Date:

Thursday, October 11, 2012

  Actual Average Record
Temperature  
Mean Temperature 68 °F -  
Max Temperature 83 °F 77 °F 96 °F (2002)
Min Temperature 52 °F 44 °F 41 °F (1998)
Cooling Degree Days 2    
Growing Degree Days 18 (Base 50)    
Moisture  
Dew Point 48 °F    
Average Humidity 46    
Maximum Humidity 77    
Minimum Humidity 20    
Precipitation  
Precipitation 0.00 in 0.02 in - ()
Sea Level Pressure  
Sea Level Pressure 29.89 in    
Wind  
Wind Speed 8 mph ()    
Max Wind Speed 28 mph    
Max Gust Speed -    
Visibility 7.6 miles    
Events      
Averages and records for this station are not official NWS values.
T = Trace of Precipitation, MM = Missing Value Source: Averaged Metar Reports

Daily Weather History Graph

Daily Weather History Graph

Search for Another Location

Airport:

Trip Planner

Search our weather history database for the weather conditions in past years. The results will help you decide how hot, cold, wet, or windy it might be!

Date:

Astronomy

Oct. 11, 2012 Rise Set
Actual Time 6:35 AM EEST 6:05 PM EEST
Civil Twilight 6:10 AM EEST 6:30 PM EEST
Nautical Twilight 5:41 AM EEST 6:58 PM EEST
Astronomical Twilight 5:13 AM EEST 7:27 PM EEST
Moon 2:04 AM EEST (10/11) 3:18 PM EEST (10/11)
Length of Visible Light 12h 19m
Length of Day
11h 29m
Waning Crescent, 21% of the Moon is Illuminated
Oct 11
Waning Crescent
Oct 15
New
Oct 22
First Quarter
Oct 29
Full
Nov 7
Last Quarter

Hourly Weather History & Observations

Time (EEST) Temp. Dew Point Humidity Pressure Visibility Wind Dir Wind Speed Gust Speed Precip Events Conditions
12:00 AM 62.6 °F 41.0 °F 45% 29.92 in - WSW 4.6 mph - N/A   Clear
1:00 AM 64.4 °F 44.6 °F 49% 29.89 in - WSW 4.6 mph - N/A   Clear
2:00 AM 62.6 °F 46.4 °F 55% 29.89 in - SW 6.9 mph - N/A   Clear
3:00 AM 60.8 °F 51.8 °F 72% 29.89 in - WNW 2.3 mph - N/A   Clear
4:00 AM 59.0 °F 46.4 °F 63% 29.89 in - Calm Calm - N/A   Clear
5:00 AM 57.2 °F 46.4 °F 67% 29.89 in - South 2.3 mph - N/A   Clear
6:00 AM 60.8 °F 53.6 °F 77% 29.89 in - Calm Calm - N/A   Clear
7:00 AM 51.8 °F 42.8 °F 71% 29.89 in - Calm Calm - N/A   Clear
8:00 AM 55.4 °F 44.6 °F 67% 29.92 in - Calm Calm - N/A   Clear
9:00 AM 67 °F 50 °F 44% 29.81 in 9 mi WNW 6.7 mph - -  
9:00 AM 66.2 °F 50.0 °F 56% 29.92 in - WNW 6.9 mph - N/A   Clear
10:00 AM 73.4 °F 51.8 °F 47% 29.92 in - SW 4.6 mph - N/A   Clear
11:00 AM 78.8 °F 46.4 °F 32% 29.92 in - SW 11.5 mph - N/A   Clear
12:00 PM 82 °F 49 °F 21% 29.78 in 9 mi West 15.7 mph - -   Clear
12:00 PM 82.4 °F 48.2 °F 30% 29.89 in - West 16.1 mph - N/A   Clear
1:00 PM 82.4 °F 48.2 °F 30% 29.89 in - West 23.0 mph - N/A   Clear
2:00 PM 80.6 °F 51.8 °F 37% 29.89 in - WNW 20.7 mph - N/A   Clear
3:00 PM 82 °F 48 °F 20% 29.77 in 9 mi West 26.8 mph - -   Scattered Clouds
3:00 PM 82.4 °F 48.2 °F 30% 29.89 in 6.2 mi West 27.6 mph - N/A   Partly Cloudy
4:00 PM 82.4 °F 48.2 °F 30% 29.89 in 6.2 mi West 27.6 mph - N/A   Partly Cloudy
5:00 PM 80.6 °F 51.8 °F 37% 29.89 in 6.2 mi West 25.3 mph - N/A   Scattered Clouds
6:00 PM 78.8 °F 46.4 °F 32% 29.92 in 6.2 mi West 23.0 mph - N/A   Partly Cloudy
7:00 PM 75.2 °F 50.0 °F 41% 29.92 in - West 16.1 mph - N/A   Clear
8:00 PM 73.4 °F 51.8 °F 47% 29.95 in - West 9.2 mph - N/A   Clear
9:00 PM 71 °F 50 °F 36% 29.84 in 9 mi SW 6.7 mph - -  
9:00 PM 71.6 °F 50.0 °F 46% 29.95 in - SW 6.9 mph - N/A   Clear
10:00 PM 66.2 °F 48.2 °F 52% 29.95 in - SSW 4.6 mph - N/A   Clear
11:00 PM 66.2 °F 51.8 °F 60% 29.98 in - SW 4.6 mph - N/A   Clear